Theta_e
294 295 294 295 295 295 294 295 295 294 296 296 294 295 297 299 293 291 298 301 299 300 303 306 307 309 310 311 311 314 315 316 318 321 323 325 326 327 329 332 332 331 331 331 332 332 332 331 331 331 331 331 331 331 331 331 332 332 332 331 330 329 328 326 325 325 323 321 320 319 318 317 317 319 319 319 318 315 314 314 314 313 312 312 311 311 311
294 294 295 296 295 295 295 295 295 296 296 296 296 297 298 298 298 300 300 300 300 303 304 306 308 312 313 314 314 314 313 315 318 319 321 324 326 325 329 331 331 331 330 331 331 331 330 330 330 330 330 330 330 330 330 330 330 331 330 329 327 327 325 324 323 322 321 321 320 319 317 316 317 318 318 318 315 313 313 312 311 311 311 311 310 311 310
293 294 295 296 295 295 293 295 296 296 296 296 297 297 299 300 298 300 300 300 300 304 308 308 313 314 313 313 311 311 312 315 319 319 321 323 324 327 329 331 331 331 330 330 331 331 330 330 330 330 329 329 330 330 329 329 330 330 330 328 327 325 324 323 322 320 319 319 319 317 316 316 317 317 318 318 313 313 312 311 310 311 309 310 312 312 310
290 294 294 295 295 295 294 295 295 295 295 294 296 294 299 298 296 299 299 297 297 304 307 307 308 309 309 309 310 310 312 314 319 319 321 323 325 327 329 330 330 329 329 330 330 329 329 330 330 330 329 329 328 328 328 328 329 330 330 328 328 327 327 324 321 320 319 319 317 316 316 315 315 315 317 315 312 311 310 308 308 310 311 309 308 308 309
287 294 294 293 294 292 290 292 295 296 297 298 298 299 300 300 301 296 292 295 302 305 307 306 306 307 307 307 308 309 311 315 318 320 320 322 325 327 329 328 328 329 330 330 330 331 329 329 329 330 331 329 328 328 327 327 328 328 329 328 328 327 326 324 323 321 320 320 318 318 317 314 314 314 314 312 311 311 310 311 311 309 308 307 308 308 309
288 294 296 297 291 283 285 298 301 300 298 298 297 297 299 301 301 299 301 301 304 305 305 304 305 306 307 308 310 312 314 316 319 319 320 321 324 327 329 329 327 328 330 331 330 330 330 330 331 331 330 329 329 328 327 327 326 327 327 326 326 326 325 324 324 324 322 319 317 316 315 314 314 313 312 310 310 309 309 310 308 308 309 308 308 308 308
288 292 293 288 283 285 298 301 301 301 301 300 299 300 301 301 301 302 301 302 304 305 305 306 307 308 307 309 311 316 317 316 316 316 317 321 324 328 329 328 328 329 331 331 330 330 330 329 330 330 329 329 328 328 328 328 327 326 326 325 325 326 326 325 323 320 318 318 315 314 314 313 312 312 311 310 309 308 308 307 306 306 306 306 306 307 308
293 290 288 281 284 298 304 302 303 304 302 302 301 298 301 302 302 302 301 303 304 305 305 306 308 307 308 310 313 315 315 316 320 319 318 319 325 329 330 330 330 329 330 331 330 331 330 330 330 330 330 330 328 327 327 327 326 327 326 325 324 324 323 322 320 318 317 315 314 313 312 312 312 310 310 310 309 308 307 306 306 304 303 304 305 306 308
284 288 288 287 297 297 298 298 300 300 298 299 297 291 297 303 304 303 302 303 304 305 306 306 307 308 309 310 311 313 312 313 318 322 321 322 326 331 332 331 329 331 332 331 331 331 332 330 328 328 329 328 328 327 326 326 325 326 327 326 324 324 323 321 319 318 317 314 312 312 312 311 311 309 309 309 308 308 306 305 303 303 303 304 305 307 308
293 288 286 287 287 284 290 303 306 307 310 311 305 299 296 303 304 305 304 303 304 305 306 306 306 310 308 306 305 310 312 316 320 323 323 325 328 332 333 331 330 331 333 333 332 331 330 328 329 329 329 328 327 325 325 325 324 324 324 323 323 323 320 320 318 317 315 313 311 311 310 310 310 310 309 308 307 307 305 304 303 303 304 304 307 307 307
291 289 287 285 284 288 300 304 306 308 310 309 307 298 293 302 304 305 304 303 304 305 305 305 307 305 303 302 307 316 317 322 325 324 324 326 329 332 332 330 329 330 332 331 330 330 329 327 328 329 329 328 326 325 325 325 325 325 324 323 320 319 318 317 316 315 314 313 312 311 311 310 310 309 308 308 308 308 307 305 304 303 305 305 307 307 309
290 289 286 286 289 290 300 305 308 307 309 310 303 289 289 303 306 306 305 304 305 306 306 307 306 305 301 303 313 325 328 327 328 327 326 328 330 330 331 331 330 331 331 329 328 328 327 327 328 329 329 327 326 325 325 326 325 325 325 324 321 320 318 317 316 315 315 314 313 312 310 309 309 308 308 308 308 308 307 305 304 304 305 307 305 306 308
290 288 288 289 290 298 305 305 307 308 310 305 290 286 296 311 314 310 307 306 307 307 306 307 304 309 309 324 324 326 327 328 329 329 330 330 330 330 330 328 321 330 330 330 328 328 328 328 328 329 329 329 326 325 325 326 325 325 327 327 325 323 320 319 317 316 315 313 312 311 311 308 308 308 308 307 307 306 305 305 305 304 304 304 304 305 307
290 290 288 288 290 300 307 308 308 308 303 291 290 304 315 315 313 316 314 308 308 308 308 308 309 314 325 326 324 324 329 329 330 329 330 330 330 331 328 326 329 330 330 329 328 328 329 328 328 328 327 326 325 326 324 323 325 326 326 323 321 318 317 315 314 312 311 311 311 308 308 307 306 306 306 306 305 305 305 305 304 303 302 303 304 304 305
293 291 288 287 284 296 310 310 305 308 297 299 308 313 314 315 316 314 315 316 316 314 310 313 313 323 325 325 325 326 329 330 330 330 330 329 329 329 329 328 329 329 328 328 327 327 328 329 328 328 327 325 324 324 325 325 326 326 326 326 323 319 318 317 314 314 312 309 307 307 306 306 305 305 305 305 305 305 305 304 302 302 302 303 303 303 304
289 288 285 287 296 304 311 310 297 308 312 315 316 315 312 314 315 315 313 318 318 317 317 314 316 323 324 325 326 329 330 331 331 331 330 332 331 330 330 329 329 329 329 328 329 329 329 328 328 328 327 325 325 324 325 327 326 325 324 322 321 319 320 318 315 314 312 308 307 306 305 305 304 304 305 305 305 304 305 303 301 301 301 303 302 301 301
293 292 295 303 306 308 311 312 312 314 316 318 317 315 314 313 315 317 316 320 323 324 321 322 323 322 322 325 327 327 328 330 330 330 330 330 331 330 329 328 328 328 328 328 327 328 328 328 328 327 326 325 323 323 325 325 323 322 322 321 320 319 317 315 313 311 308 307 306 305 305 305 304 304 305 305 303 304 304 303 302 301 300 300 299 300 300
304 304 304 306 305 309 310 312 315 314 315 317 317 315 313 314 316 318 318 319 320 322 324 322 321 322 324 324 327 327 328 328 328 329 329 329 329 331 330 330 328 328 328 328 327 327 327 327 327 326 327 326 323 323 324 322 323 323 320 318 317 315 314 311 308 307 306 305 305 305 304 305 305 306 305 304 303 302 303 303 301 299 298 298 299 299 298
297 291 304 305 306 310 312 312 315 317 317 316 319 316 316 317 318 318 319 320 322 323 322 322 321 321 323 324 327 327 325 328 328 328 329 329 329 329 328 329 328 328 328 326 326 326 325 327 326 326 326 326 325 326 324 322 324 324 321 317 314 313 312 309 308 307 305 304 304 304 304 305 305 306 306 306 303 303 303 302 300 298 298 297 296 296 297
295 295 304 308 309 310 312 312 313 314 314 317 320 320 319 318 318 318 318 319 319 323 322 322 321 321 325 325 325 326 326 326 327 327 327 329 328 329 329 328 327 327 327 327 326 325 324 325 326 325 325 326 327 327 324 321 323 323 318 316 315 313 311 309 308 307 306 297 301 304 304 305 305 306 307 307 304 302 302 301 299 298 297 296 296 297 296
301 303 304 306 310 310 312 312 314 316 316 316 319 321 321 317 316 317 318 319 320 320 320 323 323 322 323 324 325 324 326 326 326 326 327 328 328 330 328 328 326 326 327 326 326 325 325 326 326 325 326 326 326 324 321 321 320 319 317 314 313 313 311 309 308 307 306 304 304 304 305 306 307 308 306 306 305 304 305 304 301 299 297 296 297 297 296
295 297 302 307 298 297 308 312 314 315 316 318 317 318 318 319 317 317 316 317 318 320 321 321 322 321 322 324 325 323 324 325 327 327 327 327 327 327 328 329 329 328 328 327 326 325 324 325 325 325 325 325 325 324 326 327 323 318 316 314 315 316 313 311 308 306 305 304 305 304 305 304 306 307 299 299 303 305 304 298 294 294 294 298 298 299 298
295 305 308 310 309 309 310 314 314 316 317 317 316 316 315 318 320 319 318 316 316 317 318 320 321 322 323 324 325 325 325 326 327 327 326 327 326 327 328 328 327 327 328 328 325 324 324 324 324 324 325 325 324 323 322 322 322 318 316 314 313 317 315 311 306 306 305 305 305 304 305 305 306 305 304 303 294 295 297 295 293 292 292 293 293 294 300
308 310 312 312 310 307 311 314 314 315 318 316 314 314 318 318 317 318 319 318 317 316 318 319 320 321 322 324 325 324 325 326 326 326 326 326 327 327 327 327 326 326 326 325 323 321 323 324 323 324 324 324 324 323 322 322 321 319 317 314 312 311 312 309 304 306 306 305 305 304 304 305 305 304 303 301 300 292 291 293 292 291 292 291 292 292 292
306 313 312 312 312 312 314 315 316 315 315 315 314 314 316 316 316 318 318 318 319 318 317 318 320 322 322 323 325 325 324 325 324 324 321 321 322 325 326 325 325 325 325 325 323 323 323 324 324 323 323 323 324 324 324 322 320 319 317 313 312 310 310 307 306 305 305 305 305 305 304 304 304 303 301 300 298 299 298 291 292 291 291 291 291 292 292
311 310 311 312 312 311 313 311 311 312 314 314 314 315 314 314 318 316 318 319 319 320 319 319 320 322 323 322 322 323 324 323 319 319 324 323 323 323 323 323 325 325 324 325 323 322 323 323 324 323 322 322 322 323 324 322 321 320 318 316 314 312 310 308 307 306 306 306 306 306 306 306 305 304 303 303 302 300 299 300 300 296 293 292 292 291 292
312 313 312 308 310 310 311 309 309 313 315 316 315 315 314 318 314 316 317 318 319 320 319 319 320 321 323 324 321 323 322 321 322 323 323 322 321 321 323 324 325 324 324 323 323 320 319 322 319 321 321 320 320 319 320 321 320 318 316 314 313 301 295 300 307 307 307 307 307 308 308 307 305 304 306 306 305 303 301 299 299 298 300 300 293 291 297
313 313 313 306 305 308 311 313 314 313 313 313 315 314 313 314 315 315 315 316 316 318 320 321 321 321 321 321 321 320 320 321 320 321 321 321 322 323 323 324 324 323 323 322 322 321 320 318 318 319 319 320 320 319 319 318 318 316 314 311 309 306 305 304 306 306 306 307 308 308 307 306 306 306 305 304 302 303 301 302 301 300 300 302 302 293 290
312 313 313 313 311 312 314 313 313 312 311 312 313 315 314 313 312 313 313 314 315 317 317 319 319 320 320 321 321 321 321 321 321 320 321 322 321 322 323 322 323 322 321 321 322 320 321 320 320 319 319 320 320 318 318 318 318 316 313 311 308 306 306 306 306 307 307 307 307 307 301 303 304 305 304 304 303 305 304 303 301 302 302 303 303 301 294
312 313 312 313 314 313 311 309 309 309 310 312 313 312 312 311 311 311 312 313 314 315 316 318 319 319 320 321 321 321 320 321 322 322 321 321 322 322 322 322 322 320 320 319 319 319 320 320 319 319 317 317 316 318 316 317 316 315 313 312 310 307 307 307 307 307 306 306 305 298 303 304 306 306 305 306 306 304 305 305 303 302 303 303 299 301 299
312 312 313 313 313 312 311 310 311 311 312 312 312 311 310 311 310 311 311 312 314 315 316 317 318 319 320 320 321 322 322 322 322 322 322 321 321 322 321 321 318 315 316 318 319 319 320 319 319 317 314 314 315 315 316 318 316 315 313 312 311 299 295 295 298 307 306 305 304 305 306 305 306 306 303 305 305 305 305 305 303 303 302 303 302 301 302
309 309 310 311 311 309 308 310 311 310 310 310 309 308 308 308 307 307 308 309 311 312 315 316 317 318 319 320 321 320 321 321 322 321 321 321 321 321 321 321 320 313 320 319 318 317 318 318 318 317 316 315 315 316 317 317 317 315 314 306 311 307 298 294 302 304 304 303 304 305 304 306 306 307 307 305 305 305 305 305 304 303 303 302 301 302 302
307 306 306 306 306 307 307 308 308 308 308 308 309 308 308 308 309 308 308 308 309 311 313 316 317 318 319 320 319 319 319 320 320 320 320 319 320 320 321 321 321 320 320 320 319 319 318 317 318 318 318 317 317 317 317 317 318 317 316 313 311 307 297 297 299 304 303 303 303 304 305 305 306 308 307 305 305 303 305 304 304 302 302 302 302 302 301
308 306 307 308 308 306 305 305 307 306 307 308 308 308 309 309 309 309 310 309 311 311 314 315 316 317 318 318 318 317 318 317 315 316 318 319 319 319 320 320 320 320 321 320 319 318 318 319 318 317 317 317 316 317 318 318 318 317 316 313 310 306 304 304 302 304 303 302 304 301 303 304 306 307 305 304 305 306 303 304 301 303 303 301 301 300 296
311 311 311 311 311 311 310 308 308 308 306 306 307 308 310 310 310 309 307 310 310 312 313 314 315 316 316 317 316 316 316 317 317 317 317 317 318 319 319 318 319 319 319 320 320 319 319 320 319 318 318 319 319 318 319 319 318 316 316 315 308 307 306 305 305 304 304 303 304 304 305 305 305 301 304 307 307 306 303 301 301 301 301 301 300 301 299
311 311 310 310 310 310 310 310 310 308 308 307 308 309 309 310 311 311 310 310 312 313 314 314 315 315 315 315 315 315 315 316 316 317 317 317 319 319 318 317 317 317 316 317 319 320 320 319 302 304 319 318 318 318 318 319 318 316 315 314 307 306 305 304 304 305 304 305 305 305 305 302 303 305 304 305 305 304 303 303 303 302 302 302 300 300 301
310 310 309 309 309 310 309 310 310 309 309 310 310 310 310 311 310 310 311 312 312 314 314 314 313 312 311 312 312 313 313 314 314 316 316 317 318 318 317 317 316 316 315 313 315 318 318 315 298 296 311 317 317 318 319 301 317 316 314 314 309 307 306 305 306 305 304 304 304 305 302 304 306 307 303 305 305 304 303 304 302 302 303 302 300 301 299
311 311 310 309 310 310 310 312 311 310 310 310 310 311 310 310 309 310 310 311 312 312 312 312 311 311 311 311 310 309 309 311 313 313 313 315 316 315 315 314 315 316 314 315 317 317 317 305 293 305 316 316 316 318 310 296 299 314 315 313 310 307 305 306 304 303 304 306 305 307 306 307 306 306 305 305 305 304 303 304 303 302 303 301 301 301 300
310 311 311 311 310 310 310 309 310 310 309 309 309 310 310 310 310 310 310 310 310 310 310 310 310 310 310 310 310 310 311 310 310 312 312 312 312 314 313 314 314 313 315 318 319 316 309 307 313 314 315 316 316 316 303 295 298 314 314 314 312 309 307 307 306 305 305 308 306 306 307 306 306 306 305 305 305 302 300 302 302 303 303 303 302 301 301
308 309 310 309 309 309 308 308 309 309 309 310 309 309 310 309 310 310 310 309 310 309 310 311 310 308 308 309 309 310 310 311 311 311 311 312 311 312 311 312 315 315 312 302 315 313 304 297 308 315 317 315 315 312 308 303 303 313 313 312 312 310 309 308 308 307 307 308 306 300 307 305 305 304 303 303 304 302 303 302 301 302 302 302 302 301 300
308 309 309 308 308 307 307 308 308 309 309 309 309 311 311 310 311 309 309 309 310 311 310 309 308 306 307 307 308 309 310 310 310 311 311 311 310 309 308 308 313 315 313 311 310 307 303 303 311 315 315 313 313 306 308 299 309 312 312 311 311 311 309 307 306 305 306 305 303 306 306 305 303 303 303 305 303 303 302 302 300 300 301 301 301 301 301
308 308 308 307 307 307 307 308 308 308 309 310 309 310 311 310 309 309 309 309 309 309 308 308 301 307 307 308 308 308 308 309 309 310 310 309 309 309 307 308 311 311 297 300 301 304 309 310 309 306 316 314 310 296 296 306 310 312 311 310 308 306 306 305 305 305 305 304 303 304 302 303 302 302 301 302 303 302 303 303 301 301 302 301 301 302 301
307 308 308 308 307 307 307 307 307 307 307 308 310 311 310 310 310 310 310 309 308 307 307 308 306 304 307 308 307 307 308 309 308 309 309 310 311 312 310 311 310 306 292 305 309 311 310 311 311 310 298 306 303 290 293 308 309 309 308 307 306 306 307 306 307 308 307 305 305 305 304 304 303 303 301 301 302 302 302 302 302 302 302 303 302 301 300
309 309 308 306 306 306 306 306 306 306 305 306 307 309 310 310 309 308 307 306 306 305 305 305 306 307 306 307 306 306 308 308 308 309 308 309 310 311 313 311 309 301 293 304 310 310 310 311 310 298 288 289 289 291 304 309 308 308 308 307 306 306 306 306 306 306 306 305 305 305 305 302 304 304 303 303 303 303 302 303 304 304 303 302 301 301 301
309 308 308 308 306 305 305 305 306 305 305 305 306 307 308 307 309 308 307 306 305 304 303 306 306 306 306 306 307 307 307 308 308 308 307 307 305 309 310 301 306 305 301 296 309 310 309 306 296 288 290 288 290 291 309 309 309 309 309 308 308 307 307 307 306 307 306 306 306 306 305 305 305 304 304 303 300 302 302 303 302 303 302 301 301 300 300
308 309 309 301 307 307 307 307 306 307 306 306 304 303 305 308 307 307 306 306 306 306 307 307 307 306 306 306 306 307 307 308 309 310 310 309 308 308 308 300 305 299 294 291 309 309 303 286 287 288 287 288 290 303 308 308 307 309 310 309 308 306 307 307 307 306 307 306 308 307 307 307 306 306 306 305 304 303 302 299 300 302 303 302 302 301 302
309 309 308 308 308 308 308 308 307 306 306 305 304 304 303 305 306 308 307 308 307 306 306 307 306 306 307 307 307 306 306 306 307 309 311 311 308 304 300 296 294 293 297 306 306 307 302 298 290 287 288 288 289 306 309 309 309 310 310 310 309 309 308 309 309 308 308 309 307 304 301 307 306 306 304 302 303 302 302 301 303 302 303 300 301 299 299
304 305 306 307 308 308 307 307 307 306 306 305 305 305 305 305 306 307 308 308 307 306 306 307 306 307 307 307 308 308 308 307 304 307 310 311 311 310 309 309 304 296 295 293 293 290 285 287 286 287 286 287 297 307 310 311 310 310 310 310 310 310 309 309 309 309 308 308 306 307 306 306 306 307 306 304 303 302 303 302 301 302 302 301 301 301 302
299 301 302 303 304 305 305 305 304 303 305 305 305 306 305 305 306 305 305 305 305 306 306 305 306 306 307 304 306 308 308 308 308 306 309 311 310 310 307 298 289 289 298 308 306 302 289 286 287 286 285 288 305 308 310 310 309 307 308 309 309 308 308 308 308 308 307 306 306 305 307 305 306 306 305 303 303 303 302 302 303 302 303 303 302 301 301
294 295 297 297 298 299 300 301 301 302 303 303 304 304 306 307 304 304 304 305 305 303 306 305 306 306 307 308 309 309 309 309 308 309 308 309 310 310 308 307 308 298 296 308 306 302 287 284 286 287 296 304 307 308 309 309 309 307 308 307 307 308 307 303 300 300 305 304 306 305 305 305 306 303 303 302 303 303 303 304 304 299 295 297 300 301 302
290 289 291 291 293 295 296 297 298 299 299 300 301 301 303 304 304 302 303 301 305 304 304 305 306 306 307 306 307 308 309 308 307 303 307 308 308 303 303 305 306 303 308 307 308 306 304 304 305 299 299 303 307 308 309 308 308 308 304 306 307 307 305 304 304 306 307 307 305 305 305 304 304 304 303 303 302 303 303 303 301 302 301 301 300 301 301
288 290 292 290 290 290 291 292 294 296 296 296 297 298 299 301 302 301 300 293 301 302 303 305 304 305 307 306 305 307 308 307 308 308 304 307 307 307 305 301 307 305 307 308 309 310 308 305 298 296 298 305 307 308 300 299 305 307 307 304 304 306 304 306 304 306 306 305 305 306 304 305 305 304 303 303 303 303 302 302 301 300 299 300 302 301 302
Wind_Speed
12 11 13 18 19 19 19 21 22 23 22 22 21 20 21 18 14 10 11 13 15 9 10 12 12 11 11 10 9 6 7 7 7 9 12 14 16 17 19 19 19 19 19 18 20 20 18 17 17 18 16 16 15 15 16 15 15 12 12 12 13 11 14 15 16 16 15 13 12 12 13 13 12 12 11 10 10 10 10 10 8 9 8 8 8 7 7
11 12 15 17 19 19 20 20 20 20 23 24 24 20 21 22 15 14 11 13 17 14 10 10 11 9 8 8 5 3 5 6 6 9 11 14 15 18 19 19 20 19 19 18 19 20 19 19 19 16 17 17 17 16 16 12 12 11 15 14 16 16 17 16 15 16 16 15 15 14 13 12 12 12 12 11 10 11 11 10 9 8 8 7 8 7 8
10 12 13 12 16 17 18 20 21 22 22 21 21 20 19 18 19 16 14 11 11 13 14 8 15 7 6 5 7 4 2 5 7 8 10 12 15 16 17 17 18 18 18 19 21 20 21 21 21 19 16 18 17 15 12 13 15 15 16 16 16 16 16 16 15 15 14 15 15 15 12 10 11 14 14 11 11 11 11 11 10 8 8 7 6 3 8
7 10 11 10 11 15 17 19 21 22 23 21 18 16 17 18 18 18 16 16 12 11 15 15 13 10 8 9 8 6 5 7 8 8 9 11 13 15 17 17 17 18 19 21 19 20 19 18 21 19 18 16 17 17 14 13 11 14 15 17 17 16 17 16 16 15 15 16 15 14 14 13 13 12 10 11 11 11 11 12 11 10 9 8 10 10 9
5 10 12 9 10 11 13 17 20 22 20 18 18 18 18 18 15 14 13 14 10 10 6 10 10 8 8 9 9 7 6 6 7 9 9 10 12 14 15 15 16 17 20 20 20 18 18 16 18 18 18 18 17 17 16 15 14 16 14 15 16 17 17 17 18 16 15 16 15 16 16 15 13 12 12 11 11 11 11 9 8 10 11 11 11 10 8
5 7 8 8 8 11 14 12 15 16 17 18 19 17 19 18 16 13 12 12 12 13 11 11 11 10 8 10 10 2 3 4 6 7 8 9 12 14 14 16 17 16 16 16 17 18 18 15 16 16 16 16 15 15 16 16 17 17 16 16 15 15 16 17 17 17 16 16 16 16 15 13 13 14 14 13 12 11 10 9 9 9 9 10 9 9 9
4 4 10 8 13 13 8 9 14 16 17 17 17 16 17 17 17 17 15 13 12 13 13 12 11 11 12 12 1 2 6 6 7 8 10 9 11 15 15 16 16 18 18 17 17 18 17 18 16 16 16 13 14 16 16 16 16 16 15 16 13 16 17 16 16 15 16 15 15 15 14 13 13 13 13 12 13 11 10 10 9 8 9 9 9 9 10
5 5 5 8 10 1 3 4 6 12 16 15 14 16 16 16 17 17 17 16 14 14 13 11 11 13 12 5 5 5 6 7 9 11 11 10 12 14 14 15 15 16 18 17 19 17 15 17 18 17 17 16 17 16 16 14 14 15 17 17 16 15 15 17 16 15 15 15 14 14 14 14 14 13 12 12 12 11 11 9 8 8 8 9 10 10 11
4 4 3 7 2 5 6 5 8 8 12 14 13 10 13 15 14 16 15 16 16 16 13 12 14 13 3 5 9 12 13 12 12 12 10 9 11 13 13 14 15 16 15 15 15 15 15 16 15 15 15 15 16 17 18 16 16 17 18 18 18 17 17 16 15 15 15 15 14 14 14 15 14 13 13 13 10 9 10 10 10 10 10 9 10 10 10
5 3 3 5 4 7 6 3 3 4 4 5 10 10 10 14 17 17 17 17 18 17 15 16 16 6 4 9 9 12 13 12 13 11 9 8 9 13 14 14 15 15 17 16 16 14 17 18 16 16 17 17 17 17 17 17 18 17 18 17 16 16 14 14 15 14 14 14 15 14 14 15 14 13 12 10 11 10 10 10 10 10 10 10 10 9 10
6 5 4 3 5 1 5 4 1 1 3 4 3 9 11 10 14 17 17 18 17 16 15 15 13 8 8 10 6 2 8 9 10 10 9 11 12 13 15 16 17 17 17 18 17 16 16 16 17 17 17 18 17 17 17 18 18 17 17 15 15 14 13 12 12 13 13 13 14 14 14 13 13 14 13 12 11 10 10 9 9 8 8 8 8 8 9
7 5 6 3 3 2 2 5 0 2 4 3 6 9 6 4 11 14 15 17 15 15 15 13 11 8 8 8 4 6 3 7 8 9 11 11 12 13 14 15 15 16 17 17 18 18 18 19 18 18 18 17 16 16 16 16 18 17 17 15 14 12 13 13 12 12 11 13 14 14 13 12 10 11 10 11 12 11 10 9 9 8 7 6 7 7 8
6 6 4 2 5 1 4 6 2 4 4 8 8 7 1 9 11 8 15 15 14 13 12 11 8 8 6 3 3 1 4 6 8 8 10 12 13 14 15 15 15 14 16 18 17 20 17 19 18 18 16 16 16 15 16 15 17 16 16 15 16 15 13 13 13 13 11 11 12 10 10 11 10 9 9 10 11 11 10 8 9 9 8 8 8 8 8
6 4 8 0 3 4 5 7 1 6 8 7 6 4 6 6 8 5 3 12 15 13 12 7 7 5 7 7 6 6 5 9 9 10 12 13 13 14 15 16 15 15 16 16 17 18 17 19 17 16 16 15 15 15 16 16 15 14 15 16 15 13 13 12 11 10 10 9 11 9 9 11 11 10 9 10 10 11 10 9 10 9 8 8 9 8 8
6 5 5 1 2 2 7 6 4 4 3 3 5 7 7 9 5 5 3 3 4 0 5 6 6 4 5 6 5 5 9 10 11 12 14 15 15 16 18 18 17 16 15 16 16 17 16 17 17 16 17 16 14 14 15 16 15 15 16 16 15 13 14 13 13 12 11 13 10 7 8 9 11 11 10 10 10 10 9 10 10 10 10 9 9 8 8
4 2 2 1 1 4 6 9 2 4 5 4 2 4 5 6 8 6 3 4 2 1 1 6 6 4 5 6 5 5 8 9 9 11 12 12 15 16 18 18 18 18 16 17 16 17 16 16 16 16 16 14 12 14 16 15 15 15 14 14 13 11 11 13 13 13 12 12 10 9 11 11 11 11 11 10 10 9 9 9 9 10 10 9 9 9 9
3 3 3 2 2 4 4 3 6 4 1 1 3 5 4 5 6 5 4 5 4 3 2 3 4 4 3 4 5 7 6 8 8 9 12 11 13 15 17 18 18 16 15 17 15 16 15 17 16 15 15 15 13 15 15 15 15 14 11 9 8 11 10 10 11 11 10 10 10 10 10 11 12 11 12 12 10 10 10 10 10 10 9 9 9 9 9
2 7 7 7 4 1 2 4 1 3 1 1 3 5 6 9 8 7 7 7 6 5 5 3 4 2 3 3 4 5 6 7 11 8 12 11 12 13 14 15 17 16 16 16 16 17 17 17 15 14 15 15 17 15 15 13 14 14 14 11 11 11 11 10 11 12 12 10 10 10 10 10 10 10 12 11 10 11 11 10 10 10 10 10 9 9 9
3 3 1 3 5 6 3 4 3 4 3 2 1 5 7 8 8 9 9 8 9 8 6 6 6 6 4 4 5 4 7 6 9 10 10 12 12 14 15 15 14 13 15 15 16 16 15 15 14 13 14 13 14 14 15 13 15 17 16 16 15 14 13 13 13 12 13 11 10 10 10 9 9 10 10 10 11 11 11 11 10 10 10 10 10 9 9
6 3 3 2 2 8 8 5 1 2 1 2 4 4 5 7 8 9 10 10 11 9 10 9 8 8 7 5 5 5 5 6 8 10 10 9 10 11 13 15 15 14 15 16 16 16 14 13 13 13 14 14 14 13 15 14 14 17 17 17 15 14 14 13 12 13 11 14 14 11 10 10 11 11 11 11 11 11 11 11 11 10 10 10 10 10 10
8 8 7 6 2 3 4 4 5 6 4 3 3 2 2 6 9 10 11 11 11 11 11 10 9 9 9 8 6 7 6 6 7 8 9 11 10 8 8 11 12 11 12 13 15 15 13 13 13 13 14 14 16 16 16 16 16 16 15 15 13 14 13 11 11 11 11 12 11 11 11 10 10 10 11 11 10 10 11 10 10 10 11 10 10 9 9
5 2 3 3 2 1 4 4 3 3 6 8 3 4 3 4 6 8 10 11 11 11 11 10 10 10 9 8 6 8 7 7 7 9 10 10 10 10 10 11 12 10 10 13 14 14 10 10 12 13 14 12 14 14 14 16 17 15 15 14 15 15 13 12 11 11 11 11 10 10 11 10 10 9 9 10 11 9 10 10 13 10 8 9 10 9 10
1 8 3 3 4 2 4 3 3 4 6 7 7 4 3 4 4 5 7 9 11 11 11 10 10 9 9 9 8 8 8 7 6 7 7 6 8 9 9 11 12 9 10 12 14 14 11 10 12 12 12 14 14 14 14 13 15 16 15 12 11 13 14 13 13 13 12 12 10 10 10 10 9 9 9 5 4 3 8 10 11 10 6 8 13 10 8
8 8 6 1 3 4 4 3 5 7 5 5 3 5 5 5 5 5 5 6 9 10 10 10 9 9 8 8 8 8 8 7 7 5 4 7 7 7 10 10 11 10 10 12 13 13 12 11 12 12 12 14 13 14 14 14 14 14 13 11 10 10 12 11 11 11 11 11 10 10 10 10 10 10 10 10 5 7 8 10 12 10 9 9 10 8 3
5 6 5 6 6 5 5 4 5 8 14 14 10 6 7 6 5 5 5 6 8 9 9 9 9 8 8 7 7 7 7 7 6 7 5 3 4 5 6 7 9 9 9 13 12 12 12 11 11 12 12 13 13 14 14 13 13 13 13 11 11 11 11 12 12 11 10 10 9 10 11 11 11 10 11 10 10 8 5 8 5 8 10 10 10 9 8
5 5 6 9 4 3 4 1 3 6 7 9 11 11 8 6 4 4 4 8 8 8 9 9 9 8 7 7 6 6 7 7 7 5 5 5 6 6 6 7 7 8 8 9 10 10 11 12 11 12 13 13 11 11 14 13 13 13 13 12 13 12 11 13 12 11 10 10 10 11 11 11 11 11 11 11 11 11 10 8 5 3 3 1 5 9 11
1 3 5 8 5 6 4 4 2 4 2 2 7 5 4 3 5 3 5 7 8 8 8 8 8 7 8 7 7 6 7 8 6 3 4 3 3 3 3 4 6 6 7 9 10 9 7 7 7 9 11 11 11 11 11 13 12 12 11 11 10 10 14 13 12 11 11 10 11 11 11 11 11 11 11 11 10 11 12 11 11 10 10 7 4 5 6
1 4 6 6 5 3 3 3 5 7 7 8 9 2 1 1 1 4 6 6 5 6 5 6 6 7 7 8 8 8 6 6 6 7 5 4 4 3 4 4 6 7 7 8 9 7 8 10 9 10 11 11 11 11 12 13 12 12 11 10 9 9 9 9 8 9 9 10 10 10 10 9 9 8 8 8 8 9 10 11 11 11 10 11 10 7 8
2 3 5 11 7 2 0 1 1 2 1 5 12 9 4 2 2 2 4 4 3 5 5 6 6 6 6 5 6 6 5 4 4 6 7 7 6 6 6 7 6 7 7 9 8 8 9 9 9 10 10 10 10 10 9 10 10 10 10 10 9 9 9 9 8 8 8 9 9 9 8 8 8 8 8 8 9 10 10 10 11 11 11 10 10 8 7
0 1 4 9 10 11 8 4 3 4 4 8 10 5 2 1 1 3 4 5 5 5 5 4 5 5 5 5 5 5 5 6 4 5 6 6 7 7 8 8 8 8 8 9 9 10 11 11 11 10 9 7 7 6 7 7 8 9 10 10 10 11 11 10 9 9 9 9 9 8 9 9 9 9 9 10 11 12 12 11 10 11 12 12 11 11 12
2 0 2 6 6 6 6 3 6 7 8 7 3 1 2 2 3 3 4 4 5 5 5 5 5 4 5 5 5 5 5 5 5 5 6 6 6 7 7 8 8 8 8 8 9 9 10 10 9 9 10 10 10 10 9 8 8 9 9 8 9 12 14 14 11 10 9 9 9 9 9 9 10 10 10 10 11 11 11 11 11 11 11 11 12 12 11
3 2 2 3 4 5 6 3 9 6 4 3 3 2 4 4 5 5 5 5 5 5 4 4 5 5 4 4 4 4 4 5 4 5 5 6 6 6 6 7 7 8 7 8 8 8 7 7 8 8 10 10 11 12 12 11 10 9 8 9 9 10 10 14 9 9 8 8 8 9 10 10 10 11 12 11 11 12 12 11 11 11 11 11 11 10 10
2 2 3 4 4 3 3 3 2 2 1 2 3 2 1 2 2 4 4 4 4 4 3 4 4 3 3 2 2 2 3 4 4 4 3 4 5 5 5 5 5 5 7 8 9 9 10 10 9 9 10 10 11 10 11 10 10 9 9 9 8 10 11 11 10 9 8 9 9 9 9 9 10 11 11 11 11 10 11 10 9 9 10 10 10 10 11
2 2 4 3 3 2 1 2 2 4 2 2 2 2 0 1 2 3 4 5 5 5 5 4 3 2 2 2 1 1 2 3 4 3 3 4 5 4 5 4 4 5 5 8 10 9 8 9 10 9 11 11 11 11 11 11 10 10 10 9 9 11 11 10 10 9 9 9 9 9 8 9 9 9 11 10 10 10 10 10 10 10 10 10 10 10 11
3 4 3 3 2 3 2 3 8 10 3 2 3 2 1 2 2 5 5 5 6 4 3 2 2 1 1 1 1 2 3 4 4 2 3 4 4 4 4 3 3 4 4 6 8 8 8 10 9 10 11 12 12 11 11 12 11 9 10 9 10 11 12 11 11 10 9 9 9 10 9 10 10 10 10 12 11 10 10 10 10 10 10 10 9 7 9
2 2 1 1 2 4 4 6 7 8 8 5 2 1 0 2 2 2 4 5 4 3 2 2 2 2 3 4 5 5 5 5 5 3 2 2 4 4 4 5 6 5 5 4 4 4 6 5 8 5 9 9 10 10 11 11 11 10 10 9 10 10 11 11 10 9 9 10 9 10 9 9 8 9 10 10 9 10 10 10 10 10 9 8 8 8 8
5 2 3 4 6 5 7 8 9 9 6 4 2 2 2 3 3 4 3 3 4 3 2 3 4 5 6 6 7 7 7 6 5 4 2 1 2 4 5 5 5 6 6 4 3 3 3 7 8 1 6 9 9 11 9 6 10 9 9 9 9 10 10 10 10 9 9 9 8 8 8 8 9 9 10 9 9 10 10 9 9 8 9 9 9 9 9
5 5 7 7 7 6 6 3 3 2 3 2 1 1 3 3 3 3 3 3 4 4 5 5 4 4 5 5 6 6 6 5 4 4 3 3 1 3 4 3 3 4 5 5 7 5 4 8 9 4 7 9 8 10 9 5 6 7 9 9 9 10 10 10 10 10 10 9 10 10 10 10 10 9 9 9 9 9 9 9 9 10 10 10 10 10 10
4 4 4 4 4 4 4 3 2 1 2 3 2 2 3 4 4 4 4 4 4 4 3 3 2 2 3 2 3 4 5 4 4 3 3 3 3 4 1 3 6 7 6 4 7 6 9 8 7 7 7 7 10 7 8 6 3 7 8 9 8 8 9 10 10 10 10 10 10 10 10 10 10 10 10 10 10 9 9 9 9 9 9 9 9 9 10
4 4 4 4 3 2 2 2 2 2 2 2 3 3 5 5 4 3 2 2 2 1 0 1 3 1 1 2 2 1 4 4 4 3 3 2 1 1 1 2 4 6 4 7 1 9 8 8 8 8 9 7 5 6 5 6 6 4 7 6 7 8 8 9 9 9 10 10 10 10 9 10 10 9 9 9 10 9 9 9 8 8 8 8 8 8 9
3 2 2 3 2 2 3 2 2 1 1 1 2 3 4 3 2 2 3 2 2 2 3 4 5 4 2 2 5 4 3 3 4 3 3 3 4 3 5 2 4 4 5 6 7 7 9 8 7 8 6 7 8 9 9 9 8 6 6 6 7 7 8 8 8 9 9 8 7 8 7 7 5 5 3 1 6 9 8 6 5 4 6 8 8 9 9
4 3 3 3 3 3 2 2 2 2 3 2 2 1 2 2 2 2 3 3 1 1 1 3 6 7 6 4 3 4 5 4 4 2 3 3 5 4 5 3 6 5 6 6 5 5 4 6 2 6 5 7 5 10 9 9 9 6 5 5 4 4 4 5 5 6 7 7 6 7 6 6 7 7 6 5 5 6 7 8 8 9 10 10 10 9 8
4 4 4 3 3 2 2 2 2 2 3 3 2 1 0 0 1 3 3 2 1 1 4 3 5 5 3 3 3 4 2 1 3 2 2 1 1 1 4 4 7 6 4 2 2 4 5 4 4 1 10 8 9 12 11 8 7 5 5 5 6 5 5 6 6 6 6 7 7 8 9 8 8 8 8 10 10 8 9 9 10 10 10 9 8 8 8
4 3 3 3 3 3 3 4 4 4 2 3 2 2 2 3 1 2 1 1 3 2 3 2 3 3 3 2 3 2 1 1 1 1 2 3 5 3 2 5 7 6 4 3 4 3 5 5 5 9 12 14 14 11 6 7 7 7 7 7 7 7 8 8 9 9 9 9 8 9 10 10 9 9 9 10 10 10 9 9 8 7 7 7 6 6 7
4 3 3 3 3 3 4 6 5 4 6 2 1 3 2 2 4 2 1 0 4 4 2 1 2 2 2 2 2 2 3 2 1 2 3 3 3 5 3 3 3 3 3 5 4 2 5 8 8 10 10 11 11 9 6 6 7 6 7 6 7 7 7 7 8 8 8 8 8 8 9 9 10 10 11 11 10 9 9 9 8 8 8 8 8 8 8
1 2 1 2 1 2 3 3 5 5 5 5 6 2 2 3 3 2 1 2 3 2 2 2 2 1 1 2 2 2 3 3 1 1 2 5 5 5 7 8 6 6 3 5 4 5 6 6 9 8 8 8 8 6 4 5 6 5 5 6 6 6 7 7 7 7 8 8 8 8 9 9 9 10 10 9 9 9 8 8 8 8 7 7 8 9 9
4 1 1 0 2 1 1 1 3 3 3 2 3 5 3 2 3 2 2 4 2 2 4 1 0 2 2 2 3 4 4 5 1 3 1 5 6 6 7 8 5 3 1 3 6 6 6 4 5 7 7 7 7 5 4 4 5 5 5 5 6 6 6 7 7 7 7 8 7 7 7 7 8 8 8 8 9 9 8 8 8 7 7 8 8 8 9
9 8 8 7 5 3 0 1 2 2 2 2 0 1 3 2 3 5 3 1 2 2 3 3 1 2 1 2 3 2 2 4 3 2 2 2 4 6 4 4 5 6 6 7 9 7 9 8 6 4 4 4 5 4 4 4 4 4 5 5 6 5 6 6 6 7 7 7 7 7 7 7 8 10 10 9 8 9 9 8 8 7 8 8 8 8 9
11 10 10 9 10 10 7 6 6 6 5 4 2 3 4 2 3 2 3 1 1 1 2 4 2 1 3 3 4 2 5 3 3 3 4 3 3 5 6 7 5 4 5 2 6 5 6 5 5 4 3 4 4 4 4 3 4 4 5 4 5 5 5 5 6 6 5 5 6 7 7 7 7 7 7 8 8 8 8 8 8 8 8 7 8 9 9
12 11 11 10 10 11 10 8 8 8 7 8 7 7 5 1 1 3 5 3 1 2 0 2 3 2 2 2 1 3 3 3 3 2 3 3 2 3 4 5 4 2 5 3 9 6 6 4 5 3 4 4 4 4 3 2 3 4 4 4 4 5 3 1 1 3 4 5 5 6 6 6 6 6 6 7 8 7 8 8 7 5 2 4 7 7 8
9 8 11 11 11 11 12 11 10 9 9 9 9 9 9 4 4 6 8 11 8 3 1 2 2 3 3 2 1 3 2 1 4 5 3 3 4 6 5 4 5 3 1 1 5 6 6 5 5 5 4 5 3 3 3 2 3 3 2 4 4 5 3 4 4 3 5 5 5 5 5 6 6 6 7 7 7 7 6 7 6 7 6 5 5 5 6
10 8 9 8 10 10 10 11 12 11 11 10 10 10 10 9 7 8 9 13 10 8 7 2 3 6 6 7 8 5 4 3 2 1 1 2 2 2 5 1 3 5 4 4 1 4 5 6 7 6 4 4 4 3 6 5 4 4 3 3 2 4 4 3 4 4 5 4 4 5 5 6 6 5 6 6 6 7 6 6 6 6 6 4 8 6 8
Wind_Direction
266 262 215 191 194 207 202 211 206 205 205 213 225 218 219 222 223 221 203 220 232 205 186 164 157 151 148 151 143 117 133 152 171 178 187 189 187 183 183 180 179 177 176 178 176 173 169 167 169 174 175 171 171 172 172 173 169 161 156 163 157 154 157 164 165 164 161 150 146 150 156 157 161 167 164 164 159 155 153 156 159 147 144 146 158 164 155
231 241 238 199 197 202 206 210 215 207 209 213 218 227 224 220 219 230 224 209 219 227 212 165 129 134 133 118 91 128 175 181 190 182 190 191 191 187 187 182 181 179 177 175 171 169 170 172 172 171 174 174 170 169 171 163 163 152 171 160 166 165 166 163 160 159 158 156 157 161 156 158 160 168 166 161 157 153 151 139 132 153 139 143 168 163 149
226 240 253 220 199 201 210 207 212 214 215 217 216 219 225 226 232 225 227 249 228 219 231 195 115 141 149 185 210 198 216 183 184 191 188 191 193 191 192 185 182 177 175 172 175 170 174 176 175 175 172 179 175 168 154 157 168 169 173 163 162 163 160 157 153 153 154 157 159 160 151 154 161 171 171 165 157 153 147 147 148 122 140 160 100 89 150
219 230 239 227 218 223 219 212 207 208 209 214 211 216 214 221 223 220 225 227 237 230 205 238 242 247 227 211 223 230 215 216 184 199 188 187 194 195 192 188 182 177 173 172 172 176 172 172 176 174 172 168 169 169 167 159 163 168 172 172 166 166 163 155 151 151 155 160 162 155 155 151 148 146 137 152 159 153 150 152 155 154 152 143 152 173 189
224 213 217 240 244 236 228 220 210 205 208 215 212 214 212 219 222 220 223 231 234 249 198 240 250 245 250 247 257 263 232 228 202 194 201 192 195 198 194 189 189 186 180 180 179 173 174 174 178 176 169 167 166 165 159 162 166 176 172 172 168 163 157 158 157 158 160 164 162 162 167 157 149 141 148 153 147 143 141 139 141 151 164 167 173 175 169
235 233 216 202 224 222 221 210 222 217 216 207 215 211 211 211 210 226 226 232 228 241 250 250 254 256 256 254 247 271 297 198 205 220 208 205 194 196 191 190 189 188 178 176 177 174 174 166 173 172 175 171 160 158 160 164 170 175 173 171 172 165 162 163 165 168 166 163 156 160 160 152 149 156 158 155 156 155 149 145 149 158 156 163 162 169 177
226 227 260 212 215 225 217 217 211 217 221 215 215 224 217 213 213 223 235 237 234 237 242 246 256 267 264 256 133 194 221 247 258 253 239 216 198 190 189 187 185 183 181 171 170 171 168 171 173 169 172 159 162 166 169 169 168 171 171 171 167 172 171 170 167 164 161 157 154 155 153 151 155 158 159 155 158 156 154 156 161 165 170 169 176 179 191
311 265 229 221 228 153 295 208 235 205 212 220 214 218 217 211 215 214 222 226 228 233 234 246 262 257 256 273 250 237 247 237 225 222 227 221 197 186 186 184 184 181 181 172 173 171 169 166 173 172 170 165 172 172 172 165 172 170 169 170 167 171 169 170 166 160 156 153 149 149 151 152 154 157 158 157 156 152 153 157 159 169 180 182 182 191 195
253 282 267 243 80 180 203 195 214 205 208 202 210 216 211 214 215 219 223 222 231 233 236 248 248 249 265 264 252 245 242 233 223 222 223 218 191 180 177 177 178 177 169 165 169 172 162 161 163 173 165 163 165 168 170 170 173 172 174 175 175 172 173 166 159 158 156 151 150 153 155 157 158 156 156 156 150 154 156 160 168 177 179 182 188 193 191
272 271 276 222 201 228 171 45 27 276 336 310 213 215 227 211 218 217 220 226 226 229 240 240 242 238 263 249 256 243 228 210 212 206 210 194 181 175 167 164 168 171 164 153 159 165 168 165 165 170 164 161 165 167 170 173 173 175 176 171 167 164 161 157 155 156 155 151 153 154 156 161 160 159 156 156 156 163 164 168 173 178 180 185 186 188 188
287 277 263 239 235 115 332 78 217 233 311 268 226 212 233 202 218 215 219 224 224 231 226 227 235 226 232 239 262 38 160 192 196 194 185 183 175 172 165 163 170 165 167 168 163 166 161 161 171 171 171 173 173 172 177 175 175 176 179 168 160 157 153 150 152 154 155 155 154 158 162 159 156 155 157 156 157 162 168 170 171 173 180 182 175 179 184
259 296 295 292 341 46 359 319 141 182 155 188 200 216 222 189 211 212 217 220 225 221 220 223 223 216 218 249 87 290 196 194 183 176 175 171 171 164 157 160 169 163 157 153 163 166 173 172 172 175 171 174 177 178 180 180 182 182 183 174 159 155 154 153 154 154 157 160 159 157 156 151 149 151 150 155 160 165 162 165 164 166 163 169 174 170 173
276 254 259 97 248 246 349 302 299 153 171 178 199 209 25 345 344 268 213 221 219 214 215 214 235 199 226 119 151 7 190 153 161 168 165 158 161 163 153 153 151 163 165 164 169 174 171 171 175 180 183 180 179 175 179 179 183 182 181 171 170 164 154 155 155 154 151 149 139 128 131 140 138 139 147 149 151 153 157 163 158 148 165 169 170 169 176
268 303 293 284 273 337 338 308 196 141 161 181 190 47 284 313 301 308 292 215 206 207 218 204 220 86 75 100 133 181 177 157 163 156 153 155 157 152 147 139 155 167 166 168 171 169 171 173 176 177 180 181 188 182 178 183 179 173 166 161 156 149 150 151 145 135 126 117 107 114 111 127 130 130 133 140 149 152 163 157 144 151 174 173 171 165 163
270 253 266 188 174 78 357 314 159 43 292 60 353 308 343 346 322 282 44 40 56 281 199 187 217 119 100 78 88 145 169 157 162 160 157 156 157 150 145 153 164 157 166 167 172 173 174 176 180 180 182 180 179 183 186 180 174 173 174 177 164 159 163 165 163 157 147 137 131 121 125 128 133 134 139 146 153 162 155 139 148 159 178 180 169 160 160
293 333 267 7 311 314 333 319 67 50 25 15 13 334 26 358 355 338 82 54 56 108 223 186 179 167 160 118 102 141 149 152 150 155 156 162 153 149 151 159 164 167 167 172 171 171 170 174 181 180 182 180 174 176 182 175 172 169 164 160 159 162 169 170 171 169 151 137 129 127 134 140 141 143 152 154 157 150 141 159 168 174 176 166 166 165 168
242 310 350 148 6 4 312 293 89 90 41 31 4 58 57 35 45 35 37 67 76 71 130 127 130 171 139 73 101 133 151 140 151 157 159 159 154 154 154 162 158 166 167 170 171 172 170 174 174 176 182 177 168 183 177 169 160 160 150 151 154 155 143 130 135 147 131 127 135 140 143 145 148 155 153 154 153 156 171 177 174 176 170 177 176 175 175
327 284 276 343 310 188 128 285 77 107 174 42 38 44 60 57 59 47 56 54 72 79 51 97 147 95 76 80 84 106 139 153 148 161 157 161 161 159 158 157 153 165 159 165 171 174 168 174 175 179 181 177 179 181 167 159 157 156 154 152 147 154 156 144 138 138 136 135 138 144 149 156 155 157 159 165 164 169 179 177 176 178 177 180 181 181 183
256 232 352 41 313 297 186 210 158 171 128 135 77 65 55 62 54 59 52 54 63 68 66 55 60 74 62 86 87 100 139 147 148 163 162 170 167 166 167 153 157 168 162 170 175 171 172 172 174 176 180 173 170 173 153 151 162 163 167 165 166 165 158 150 147 148 146 150 148 150 157 159 162 170 172 171 168 179 179 183 181 184 180 179 182 185 181
234 265 91 44 344 311 312 293 247 129 52 93 98 66 87 79 76 63 53 52 52 50 57 56 71 76 64 79 94 104 123 139 158 152 169 173 169 180 170 153 166 174 169 172 168 165 174 176 174 173 179 178 180 167 153 151 156 165 167 167 161 158 150 149 153 155 153 148 151 159 166 168 173 177 179 181 175 185 184 183 182 179 178 179 182 181 181
234 258 231 177 188 253 310 302 319 336 340 312 52 85 83 89 82 79 73 59 56 49 47 50 61 68 67 62 82 103 111 132 154 162 163 167 169 168 174 151 176 191 166 162 160 164 170 175 176 178 179 184 177 163 159 155 151 166 168 163 153 152 150 150 151 153 152 155 162 163 169 178 182 182 178 181 180 183 189 187 182 178 181 180 183 180 183
240 260 66 84 278 245 191 162 80 29 356 323 318 36 62 70 77 80 84 80 72 61 52 50 49 55 59 58 53 90 108 125 140 159 161 173 175 171 181 163 187 188 152 150 153 159 167 180 183 180 182 177 173 174 181 179 163 163 166 161 168 168 161 159 152 154 153 157 160 161 167 173 178 179 173 179 188 183 183 174 173 185 178 178 181 183 189
323 9 42 272 312 355 344 4 56 56 38 14 329 36 51 52 53 74 86 92 85 78 70 55 56 56 54 54 53 60 74 88 110 136 149 161 168 174 168 170 179 184 170 152 143 143 166 189 192 186 179 174 173 169 161 158 160 160 162 156 157 172 173 168 164 160 156 160 162 166 169 171 173 173 167 146 76 135 176 155 165 172 185 171 183 204 195
301 284 15 336 289 331 45 355 26 35 20 37 17 321 333 62 61 58 69 73 90 91 85 78 64 60 59 61 65 69 70 74 87 96 129 146 158 172 184 178 172 176 161 137 141 143 179 194 195 190 181 181 178 170 163 163 166 164 159 152 151 155 168 160 148 151 152 151 157 161 167 170 170 169 168 167 147 51 49 158 161 170 170 158 172 198 240
272 295 346 355 31 22 43 49 37 29 4 359 339 355 348 28 42 47 54 75 78 87 88 87 85 76 73 65 66 70 77 83 78 84 93 113 117 167 170 179 177 155 139 148 152 165 181 196 198 189 184 183 184 182 172 164 158 165 168 159 152 148 149 149 155 155 156 157 158 162 163 166 167 164 168 173 171 165 73 55 126 166 174 164 175 190 214
315 316 39 80 94 356 313 260 75 62 50 20 350 323 330 17 310 95 79 81 74 76 84 87 87 86 92 97 92 92 90 80 79 109 133 137 162 174 173 182 174 144 147 148 157 177 189 199 204 183 184 178 174 184 182 168 172 172 172 168 158 158 154 152 157 160 164 161 166 169 173 175 173 174 177 177 181 175 175 168 137 79 65 111 187 190 201
6 17 84 121 137 153 238 263 44 73 81 189 170 205 269 290 315 67 80 61 61 70 75 79 82 88 85 87 101 103 104 114 138 134 103 119 132 156 165 168 150 136 153 173 187 191 178 166 148 159 172 172 174 165 157 163 166 159 155 147 142 125 137 151 158 160 169 171 174 175 175 177 176 181 183 184 184 179 182 178 179 186 188 179 153 178 190
350 17 21 106 173 137 105 69 60 48 35 323 310 312 178 285 312 360 49 68 93 94 76 88 96 105 109 109 113 116 136 175 145 129 135 143 147 154 172 148 146 153 171 181 187 160 146 143 156 168 183 181 178 170 164 161 163 159 152 145 134 134 140 144 145 150 157 168 172 171 170 169 170 171 173 173 178 183 184 184 187 190 193 195 189 178 190
9 14 44 111 150 164 6 17 345 57 45 297 288 283 287 330 337 36 66 56 51 82 91 90 87 90 101 122 123 130 141 127 147 144 142 141 145 156 158 168 151 165 180 189 175 164 171 177 179 183 184 182 177 165 158 154 154 155 151 148 140 140 148 151 153 153 158 165 171 167 159 160 162 165 171 180 188 197 195 189 191 194 194 190 186 161 173
44 348 92 112 148 161 163 183 201 212 227 254 264 271 336 322 297 37 23 32 30 40 44 54 76 76 82 90 91 109 131 140 143 141 133 142 145 147 157 160 159 173 176 185 178 176 184 183 184 176 161 156 134 121 136 145 149 151 152 152 150 152 156 156 154 156 158 165 163 149 159 170 175 178 186 196 200 206 212 209 193 197 197 191 184 182 185
204 117 52 113 136 141 138 162 249 224 212 215 233 306 19 5 15 24 23 22 23 33 30 34 49 59 67 70 77 83 96 115 125 126 134 133 144 150 157 161 167 173 175 180 170 179 187 179 176 145 142 154 149 160 161 163 168 160 158 159 158 150 150 153 159 162 163 162 155 166 170 176 188 191 189 198 202 207 207 208 203 204 201 200 195 200 190
220 182 112 134 134 115 80 242 217 199 162 202 183 136 69 42 39 22 14 12 25 6 10 37 44 47 53 64 83 98 108 113 123 124 141 137 141 157 162 170 173 170 178 175 167 183 181 172 174 157 151 163 166 167 168 176 175 168 169 163 156 151 149 151 158 162 162 160 156 169 171 180 188 198 200 203 205 207 211 210 204 200 205 204 199 197 184
172 174 170 155 145 129 106 292 305 67 227 184 87 57 52 51 49 49 30 5 357 11 9 37 42 46 51 56 77 109 119 120 124 159 157 131 148 159 167 173 168 189 171 167 170 178 176 174 162 145 156 164 174 175 170 170 179 178 176 168 157 149 147 157 157 156 163 161 167 177 178 188 200 198 199 200 209 206 208 205 199 194 200 203 203 199 189
216 10 54 55 8 41 144 231 211 194 203 30 322 285 15 58 53 49 37 18 19 10 16 17 18 14 46 57 69 91 145 172 158 137 156 146 150 161 168 172 164 184 175 157 169 181 189 181 169 160 178 176 173 170 173 180 184 183 176 168 153 148 156 160 155 164 166 174 173 178 180 184 197 202 205 202 207 205 201 200 199 195 201 206 209 208 167
357 76 46 35 20 3 1 321 311 318 331 209 217 240 83 59 48 57 28 11 23 12 2 335 352 10 65 80 71 41 42 41 56 115 155 158 150 159 155 165 175 154 150 170 177 179 179 194 172 162 182 182 180 175 182 185 183 181 172 173 147 153 161 163 169 174 174 176 179 181 191 190 199 202 207 212 207 204 203 206 205 198 205 203 204 190 140
175 159 167 332 279 252 243 253 258 266 281 284 276 276 152 81 66 80 62 40 20 14 14 25 31 63 67 70 72 75 82 88 86 94 114 150 158 156 178 184 177 172 171 183 201 170 185 136 95 171 187 182 181 178 184 190 180 175 165 164 142 153 159 164 171 172 177 180 187 186 193 191 198 199 199 203 205 205 206 203 210 202 193 188 188 185 164
201 222 252 260 253 235 249 243 230 231 238 258 247 201 119 99 79 72 63 57 56 52 59 97 92 87 83 77 72 62 58 56 59 72 95 150 164 188 191 186 196 185 177 154 154 95 129 99 92 19 208 180 185 185 179 163 187 168 164 167 148 158 159 164 170 172 175 178 186 183 187 188 200 200 201 207 205 204 204 201 195 188 189 198 199 203 186
228 214 219 238 249 227 239 252 273 265 276 303 294 117 122 124 115 97 76 86 86 70 57 67 85 91 88 85 78 68 58 43 51 56 52 57 331 225 202 211 211 201 203 179 157 164 164 115 124 168 199 184 183 187 156 147 317 204 176 173 166 164 165 167 172 176 181 184 187 191 187 190 192 195 192 201 207 206 203 203 198 198 206 205 205 200 198
251 239 235 241 252 216 185 189 186 217 241 224 210 164 140 129 123 123 119 110 106 104 101 91 68 63 52 39 65 65 59 53 31 22 35 33 16 339 81 78 64 47 50 83 163 143 110 126 176 198 197 184 201 149 116 126 295 202 178 179 169 165 167 172 177 179 185 183 184 186 184 190 194 198 200 202 209 210 204 207 206 201 209 206 205 200 202
197 211 194 191 195 153 185 210 234 238 239 234 194 182 166 162 164 158 123 95 74 95 208 252 257 251 272 252 259 28 30 9 354 1 6 358 8 284 178 132 90 84 74 307 270 117 129 150 183 210 207 171 138 124 156 148 176 173 168 180 181 177 178 175 177 177 182 183 183 188 193 191 194 199 198 196 198 207 205 196 211 208 204 207 207 200 198
209 217 213 224 195 186 187 204 205 226 234 198 168 154 175 195 188 161 142 119 109 50 31 358 349 309 274 339 15 1 320 318 336 349 329 295 262 222 253 168 113 107 68 38 45 97 144 171 204 189 170 158 175 166 169 179 188 188 182 187 190 193 179 175 176 174 179 180 176 180 184 169 155 172 124 43 205 200 204 175 141 170 201 210 204 203 201
227 211 200 152 153 121 113 119 108 114 87 79 87 170 173 199 208 154 155 143 104 339 304 62 36 5 6 336 306 287 266 278 283 287 327 335 334 321 277 146 96 79 74 109 133 123 154 190 233 265 207 167 126 104 125 166 189 188 179 172 156 145 143 161 182 182 178 174 172 171 173 178 176 193 160 173 231 200 184 179 185 196 207 209 208 203 203
183 177 150 141 117 167 145 130 130 110 128 130 98 79 240 112 123 139 161 157 264 321 304 129 144 215 233 274 286 281 294 333 290 310 271 146 342 330 334 14 85 84 39 308 236 166 175 153 174 101 34 63 116 124 139 174 177 163 164 161 148 163 201 189 194 185 177 195 172 180 192 187 185 187 172 182 193 199 200 201 201 202 200 200 194 195 196
184 167 146 148 124 107 122 109 117 122 105 89 100 107 136 135 128 173 133 106 279 265 283 326 360 5 29 343 298 289 66 217 268 230 246 148 136 103 14 18 70 75 13 266 237 179 172 164 119 87 91 111 129 142 169 176 166 176 182 185 176 185 194 185 188 197 195 191 187 192 191 186 182 191 196 199 201 200 198 196 192 191 191 190 188 192 200
211 165 175 109 118 173 163 175 153 89 91 129 145 142 143 124 138 138 174 261 40 48 3 9 54 64 36 39 21 19 5 333 352 345 319 291 144 108 95 131 127 136 132 321 279 227 71 75 87 101 123 134 147 170 192 174 183 187 186 182 174 189 204 192 193 198 197 191 192 194 194 193 191 194 200 203 202 196 184 186 187 187 188 188 188 197 205
217 332 79 159 185 73 59 50 105 144 141 105 88 49 123 158 153 142 231 120 97 88 57 48 14 55 20 288 243 229 212 204 123 318 72 45 39 55 46 38 63 69 17 311 258 96 81 75 96 110 125 142 154 200 215 174 183 190 189 192 188 194 196 201 195 199 204 203 197 196 196 197 195 200 199 197 189 191 180 179 183 189 192 202 209 213 215
352 25 317 270 65 39 85 70 76 77 108 121 119 107 81 101 148 183 178 137 117 91 96 120 166 16 335 1 1 343 339 344 255 139 98 108 100 90 92 85 100 59 326 356 27 57 91 113 106 119 142 161 195 209 202 184 191 208 202 213 202 201 210 213 205 208 213 214 213 208 202 201 195 193 191 189 178 188 173 178 193 196 198 207 213 213 220
28 30 31 26 28 18 21 138 153 158 106 112 54 18 92 90 111 138 164 145 164 158 192 188 125 92 98 31 17 47 35 24 10 41 41 48 113 119 126 114 113 111 109 120 94 72 79 95 108 113 113 167 218 242 235 197 209 215 216 212 223 215 221 223 216 216 220 219 207 215 213 201 205 213 206 196 185 189 194 186 194 203 208 204 200 207 213
18 23 28 31 33 33 42 47 56 52 37 20 14 28 338 41 92 112 129 169 256 138 131 107 87 78 62 50 344 347 84 65 32 29 43 36 38 84 100 107 122 179 232 166 112 111 100 112 112 114 143 241 231 229 232 205 218 229 229 226 222 231 229 224 223 217 217 203 206 215 221 213 212 218 202 193 197 188 192 193 195 200 213 225 231 229 224
25 23 30 32 32 32 28 36 37 33 28 24 24 12 336 300 85 43 35 24 263 123 340 137 128 122 146 156 92 52 41 52 37 37 55 61 81 104 120 123 116 100 318 18 104 110 112 127 127 143 208 210 230 256 237 241 202 222 239 231 240 235 218 286 5 360 237 215 214 217 223 222 215 206 201 197 202 199 190 196 200 189 138 212 230 242 232
21 26 28 27 29 27 30 33 33 29 30 24 20 14 7 37 61 41 30 2 339 17 22 3 47 59 28 36 18 86 55 19 53 3 340 47 57 54 48 92 132 168 197 285 141 136 155 173 161 162 203 239 246 254 243 243 246 186 216 260 221 251 138 111 214 219 240 242 215 208 220 224 217 201 199 207 198 197 190 185 193 201 204 217 218 225 228
22 23 38 37 34 29 21 23 23 30 32 28 23 23 19 18 33 36 36 17 11 12 2 347 52 37 19 16 9 18 41 12 293 159 66 10 358 100 119 223 163 145 196 245 162 135 156 131 133 165 223 229 245 218 95 55 294 276 201 238 249 253 227 182 202 222 220 224 241 221 202 219 213 191 203 214 199 200 204 199 200 207 216 225 229 228 229